[Iaude] MPEC C150: 2024 CN3 [a=0.72,e=0.45,i=7.0,H=26.2]

mpec at cfa.harvard.edu mpec at cfa.harvard.edu
Tue Feb 13 08:58:55 EST 2024


M.P.E.C. 2024-C150                            Issued 2024 February 13, 13:56 UT

     The Minor Planet Electronic Circulars contain information on unusual
         minor planets, routine data on comets and natural satellites,
         and occasional editorial announcements.  They are published
    on behalf of Division F of the International Astronomical Union by the
          Minor Planet Center, Smithsonian Astrophysical Observatory,
                          Cambridge, MA 02138, U.S.A.
			  
             Prepared using the Tamkin Foundation Computer Network

                              MPC at CFA.HARVARD.EDU
            URL https://www.minorplanetcenter.net/    ISSN 1523-6714

                                    2024 CN3                                    


Observations:
     K24C03N* C2024 02 12.31356510 07 50.870+07 00 09.65         19.6 GVEC150U68
     K24C03N  C2024 02 12.31751910 07 44.484+07 00 10.44         19.6 GVEC150U68
     K24C03N  C2024 02 12.33493410 07 16.124+07 00 12.81         19.8 GVEC150U68
     K24C03N  C2024 02 12.33888510 07 09.774+07 00 12.88         19.8 GVEC150U68
     K24C03N  C2024 02 13.08328309 47 16.17 +07 03 22.3                WEC150X09
     K24C03N  C2024 02 13.08796609 47 08.26 +07 03 21.6                WEC150X09
     K24C03N 1C2024 02 13.11896 09 46 01.37 +06 58 45.5          20.0 VXEC150033
     K24C03N 1C2024 02 13.11924 09 46 00.84 +06 58 45.4          19.9 VXEC150033
     K24C03N KC2024 02 13.20532109 43 50.12 +06 59 16.4          19.6 GXEC150858
     K24C03N KC2024 02 13.21221309 43 38.12 +06 59 15.7          19.7 GXEC150858
     K24C03N KC2024 02 13.21910409 43 26.09 +06 59 14.8          19.6 GXEC150858
     K24C03N |C2024 02 13.24450009 42 34.410+07 02 55.20         19.7 GVEC150807
     K24C03N |C2024 02 13.24713309 42 29.780+07 02 54.50         19.4 GVEC150807
     K24C03N  C2024 02 13.47063009 36 10.128+06 58 57.75         19.82wXEC150F52
     K24C03N  C2024 02 13.48301709 35 47.873+06 58 53.49         19.91wXEC150F52
     K24C03N  C2024 02 13.49534509 35 25.705+06 58 49.03         20.03wXEC150F52

Observer details:
033 Karl Schwarzschild Observatory, Tautenburg.  Observers S. Melnikov, C.
    Hogner, F. Ludwig, M. Hartmann, B. Stecklum.  Measurer B. Stecklum.
    1.34-m f/3 Schmidt + CCD.
807 Cerro Tololo Observatory, La Serena.  Observers T. Linder, R. Holmes.
    0.61-m f/11 Ritchey-Chretien + CCD.
858 Tebbutt Observatory, Edgewood.  Observer F. B. Zoltowski.  0.51-m f/8.1
    Schmidt-Cassegrain + CCD.
F52 Pan-STARRS 2, Haleakala.  Observers J. Herman, T. Lowe, P. Minguez, A.
    Schultz, I. Smith.  Measurers K. Chambers, T. de Boer, J. Fairlamb, H.
    Gao, M. Huber, C.-C. Lin, E. Magnier, Y. Ramanjooloo, R. Wainscoat, R.
    Weryk.  1.8-m Ritchey-Chretien + CCD.
U68 JPL SynTrack Robotic Telescope, Auberry.  Observers N. Saini, C. Zhai, R.
    Trahan, M. Zhan, M. Shao.  0.28-m Reflector + CCD.
X09 Deep Random Survey, Rio Hurtado.  Observers A. Schnabel, D. Ruhela.
    Measurer S. Deen.  0.43-m reflector + CMOS.

Orbital elements:
2024 CN3                                                 Earth MOID = 0.0261 AU
Epoch 2023 Sept. 13.0 TT = JDT 2460200.5                MPC                     
M 309.75283              (2000.0)            P               Q                  
n   1.62335841     Peri.  354.14965     +0.71746148     +0.69244373             
a   0.7170120      Node   321.65651     -0.63404890     +0.60398019             
e   0.4462511      Incl.    7.03355     -0.28849785     +0.39462592             
P   0.61           H   26.21          G   0.15           U   7                  
Residuals in seconds of arc
240212 U68  0.1+  0.5-    240213 033  1.0+  0.1+    240213 807  0.0   0.0
240212 U68  0.4+  0.2-    240213 033  0.2+  0.1+    240213 F52  0.1-  0.2-
240212 U68  0.8-  0.5+    240213 858  0.0   0.1-    240213 F52  0.2+  0.0
240212 U68  0.3+  0.2+    240213 858  0.1+  0.1+    240213 F52  0.0   0.1+
240213 X09  0.2-  0.4+    240213 858  0.1+  0.3+
240213 X09  2.0+  0.1+    240213 807  0.2-  0.0

Ephemeris:
2024 CN3                 a,e,i = 0.72, 0.45, 7                   q = 0.3970
Date    TT    R. A. (2000) Decl.     Delta      r    Elong.  Phase     V
2024 01 14    13 25 02.1 +05 27 10   0.1766  1.0151    95.3    74.8    25.1
...
2024 01 29    12 55 16.5 +05 28 41   0.1033  1.0361   117.2    57.7    23.4
...
2024 02 06    12 00 32.0 +06 12 10   0.06553 1.0359   138.4    39.2    21.9
...
2024 02 12    10 15 48.5 +07 01 11   0.04440 1.0306   168.6    10.9    20.2
2024 02 13    09 49 27.2 +07 01 35   0.04235 1.0293   173.1     6.6    19.9
2024 02 14    09 20 51.6 +06 56 06   0.04093 1.0278   170.9     8.7    19.9
...
2024 02 20    06 32 38.8 +04 26 43   0.04673 1.0166   125.7    52.1    21.5
...
2024 02 28    04 43 31.5 +01 30 15   0.07694 0.9946    90.9    84.6    23.6
...
2024 03 14    03 38 13.5 -00 25 01   0.1450  0.9313    60.5   111.7    26.1

A. U. Tomatic                (C) Copyright 2024 MPC           M.P.E.C. 2024-C150





More information about the Iaude mailing list